Weather Roundup
Issued by NWS

Home | Current Version | Previous Version | Graphics & Text | Print | Product List | Glossary Off
Versions: 1 2 3 4 5 6 7 8 9 10 11 12 13 14 15 16 17 18 19 20 21 22 23 24 25 26 27 28 29 30 31 32 33 34 35 36 37 38 39 40 41 42 43 44 45 46 47 48 49 50

000
NZUS93 KARX 291610
HRRWXR

CURRENT HOURLY OBSERVATIONS ACROSS
MUCH OF THE UPPER MISSISSIPPI VALLEY
NATIONAL WEATHER SERVICE LA CROSSE WI
1000 AM CST THU JAN 29 2015


...SOUTHEAST MINNESOTA...


CITY           SKY/WX    TMP DP  RH WIND       PRES   REMARKS
ROCHESTER      CLOUDY    30  27  88 NW26G36   30.11R FOG     WCI  16
ROCHESTER/MAYO CLOUDY    31  29  93 NW18G30   30.11R WCI  19
WINONA         CLOUDY    34  28  80 NW13G24   30.10R WCI  25
AUSTIN         CLOUDY    28  27  93 NW21G32   30.14R WCI  15
ALBERT LEA     CLOUDY    28  27  93 NW15G25   30.17R WCI  17
DODGE CENTER   CLOUDY    30  27  86 NW17G28   30.13R WCI  18
PRESTON        CLOUDY    31  27  84 N20G30    30.08R WCI  19
OWATONNA       CLOUDY    28  25  86 NW23G30   30.18R WCI  14
FARIBAULT      CLOUDY    30  25  80 NW15G21   30.19R WCI  19
$$

...ELSEWHERE IN MINNESOTA...


CITY           SKY/WX    TMP DP  RH WIND       PRES   REMARKS
MINNEAPOLIS    CLOUDY    30  22  72 NW22G30   30.19R WCI  17
INTNL FALLS    LGT SNOW  13   7  77 NW18      30.22R WCI  -4
DULUTH         CLOUDY    24  19  81 NW16G25   30.08R WCI  11
RED WING       CLOUDY    34  27  75 NW12G20   30.14R WCI  25
REDWOOD FALLS  CLOUDY    27  20  75 NW17G32   30.30R WCI  14
MANKATO        CLOUDY   N/A N/A N/A NW25G31   30.21R
WORTHINGTON    CLOUDY   N/A N/A N/A NW24G31   30.30R
FAIRMONT       CLOUDY    30  21  69 NW23G35   30.24R WCI  17
$$

...SOUTHWEST WISCONSIN...


CITY           SKY/WX    TMP DP  RH WIND       PRES   REMARKS
LA CROSSE      CLOUDY    36  26  67 N20G37    30.05R WCI  25
PRAIRIE DU CHI CLOUDY    35  28  76 NW10G17   30.04R WCI  27
BOSCOBEL       CLOUDY    35  28  75 NW6       30.03R WCI  30
LONE ROCK      CLOUDY    34  27  75 NW12G20   29.99R WCI  25
PLATTEVILLE    CLOUDY    33  30  88 NW17G23   29.99R WCI  22
FORT MC COY    CLOUDY    33  28  80 NW15G21   30.03R WCI  23
CAMP DOUGLAS   CLOUDY    32  32 100 NW13G22   29.99R WCI  22
VIROQUA        CLOUDY    32  30  92 NW22      30.00R WCI  19
WIS DELLS      CLOUDY    31  27  85 NW10G21   29.96R FOG     WCI  23
$$

...ELSEWHERE IN WISCONSIN...


CITY           SKY/WX    TMP DP  RH WIND       PRES   REMARKS
MILWAUKEE      CLOUDY    32  25  75 NW16G25   29.88R HAZE    WCI  21
MADISON        CLOUDY    32  26  78 NW14G24   29.94R WCI  22
GREEN BAY      CLOUDY    32  26  78 NW16G25   29.89R HAZE    WCI  21
EAU CLAIRE     CLOUDY    32  23  69 NW20G28   30.07R WCI  20
BLACK RVR FLS  CLOUDY    33  26  76 N13G23    30.03R WCI  24
MEDFORD        CLOUDY    28  24  82 NW18G26   29.96R WCI  16
WAUSAU         CLOUDY    30  24  78 NW14      29.93R WCI  19
WIS RAPIDS     CLOUDY    31  25  78 NW16      29.98R WCI  20
MARSHFIELD     CLOUDY    31  23  72 N20G30    29.97R WCI  19
RICE LAKE      CLOUDY    31  25  77 NW12G22   30.09R WCI  22
$$

...NORTHEAST IOWA...


CITY           SKY/WX    TMP DP  RH WIND       PRES   REMARKS
DECORAH        CLOUDY    34  28  80 NW20G36   30.05R WCI  22
MASON CITY     CLOUDY    29  24  82 NW32G43   30.18R WCI  13
CHARLES CITY   CLOUDY    32  30  93 NW23G32   30.12R WCI  19
OELWEIN        CLOUDY    34  32  93 NW24G35   30.08R WCI  21
$$

...ELSEWHERE IN IOWA...


CITY           SKY/WX    TMP DP  RH WIND       PRES   REMARKS
DES MOINES     CLOUDY    35  27  72 N15G25    30.22R WCI  25
IOWA CITY      CLOUDY    35  32  88 NW17G28   30.10R FOG     WCI  25
FORT DODGE     CLOUDY    30  23  74 NW16G28   30.25R WCI  19
$$

...NORTHERN ILLINOIS...


CITY           SKY/WX    TMP DP  RH WIND       PRES   REMARKS
CHICAGO-OHARE  CLOUDY    33  27  78 NW23      29.86R WCI  21
CHICAGO-MIDWAY CLOUDY    35  29  78 NW17G26   29.86R WCI  25
MOLINE         CLOUDY    35  29  78 NW15      30.03R WCI  25
ROCKFORD       CLOUDY    34  26  72 NW15      29.95R WCI  24
PEORIA         CLOUDY    37  29  72 NW16G26   30.00R WCI  28
$$

NOTE: "FAIR" INDICATES FEW OR NO CLOUDS BELOW 12,000 FEET WITH NO
SIGNIFICANT WEATHER AND/OR OBSTRUCTIONS TO VISIBILITY. WIND
SPEEDS ARE IN MILES-PER-HOUR.



USA.gov is the U.S. government's official web portal to all federal, state and local government web resources and services.